Regional Weather Roundup
Issued by NWS State College, PA

Home | Current Version | Previous Version | Text Only | Print | Product List | Glossary On
Versions: 1 2 3 4 5 6 7 8 9 10 11 12 13 14 15 16 17 18 19 20 21 22 23 24 25 26 27 28 29 30 31 32 33 34 35 36 37 38 39 40 41 42 43 44 45 46 47 48 49 50
000
ASUS41 KCTP 220703
RWRCTP

REGIONAL WEATHER ROUNDUP
NATIONAL WEATHER SERVICE STATE COLLEGE PA
200 AM EST MON DEC 22 2014

Note: "fair" indicates few or no clouds below 12,000 feet with no
significant weather and/or obstructions to visibility.

* = STATION THAT DOES NOT REPORT PRECIPITATION /E.G. RAIN...SNOW...ETC/
    THUNDER OR FOG.

PAZ002>004-007>009-013>016-020>023-029>032-220800-
WESTERN PENNSYLVANIA

CITY           SKY/WX    TMP DP  RH WIND       PRES   REMARKS
ERIE           PTCLDY    28  20  71 E5        30.19F
MEADVILLE      CLEAR     25  19  78 VRB3      30.15S
FRANKLIN*      CLEAR     23  18  80 E9        30.17S WCI  13
NEW CASTLE       N/A     24  20  85 CALM      30.17F
BEAVER COUNTY  NOT AVBL
BUTLER*        CLEAR     23  19  86 NE8       30.17S WCI  14
PITTSBURGH INT PTCLDY    24  21  88 E3        30.15S
PITTSBURGH     PTCLDY    26  19  74 E5        30.14F
INDIANA*       CLEAR     28  21  74 VRB5      30.21S
LATROBE        PTCLDY    28  23  80 CALM      30.18S
WASHINGTON CO* NOT AVBL
$$

PAZ004>006-010>012-017>019-024>028-033>037-041-042-045-046-049>053-220800-
CENTRAL PENNSYLVANIA

CITY           SKY/WX    TMP DP  RH WIND       PRES   REMARKS
BRADFORD       CLEAR     20  17  88 SE6       30.16F WCI  12
DUBOIS         CLEAR     21  18  88 E7        30.17S WCI  12
CLEARFIELD     CLEAR     19  16  88 CALM      30.23R
JOHNSTOWN      PTCLDY    24  18  77 S9        30.15S WCI  14
ALTOONA        CLEAR     21  19  92 CALM      30.24R
STATE COLLEGE  PTCLDY    22  19  91 CALM      30.26R
WILLIAMSPORT   CLEAR     22  17  81 N3        30.31F
SELINSGROVE    CLEAR     20  16  84 NW3       30.33R FOG
FT INDIANTOWN  CLEAR     20  18  91 CALM      30.32R
CAPITAL CITY   CLEAR     22  19  89 CALM      30.33R
HARRISBURG     PTCLDY    22  19  89 N3        30.33R
YORK           CLEAR     19  15  84 CALM      30.31S FOG
$$

PAZ038>040-043-044-047-048-054-055-060>062-067>071-220800-
EASTERN PENNSYLVANIA

CITY           SKY/WX    TMP DP  RH WIND       PRES   REMARKS
SCRANTON       CLOUDY    30  22  72 CALM      30.29R
MOUNT POCONO   LGT SNOW  27  23  85 E6        30.23R FOG
ALLENTOWN      CLOUDY    30  22  72 CALM      30.32S
QUAKERTOWN*    CLOUDY    28  25  86 CALM      30.32R
READING        CLEAR     21  18  88 W3        30.33R
LANCASTER      CLEAR     21  18  88 CALM      30.32R
COATESVILLE    SUNNY     25  23  93 N3        30.31R
POTTSTOWN      CLOUDY    23  20  88 CALM      30.34R
BLUE BELL      CLOUDY    30  27  86 CALM      30.33R
DOYLESTOWN     CLOUDY    30  25  81 CALM      30.31R
WILLOW GROVE   NOT AVBL
NORTH PHILA    CLOUDY    31  22  69 CALM      30.35R
PHILADELPHIA   PTCLDY    28  21  75 NW6       30.35R
$$



USA.gov is the U.S. government's official web portal to all federal, state and local government web resources and services.